EPGDEPKK

Guest
Details From EPGD - LECH WALESA
To EPKK - BALICE
Flight Number -
Tags decoded
Created
Modified
Stats Distance 267 nm / 495 km
Max Altitude 0 ft / 0 m
Waypoints 3
Social Downloads 2
Likes 0
Share

Download

Looking for another format? Having issues loading an existing format? Contact us
Advertisement - Login to hide

Notes

Requested: EPGD IRLUN N133 NEGUV M66 KUKAM EPKK Unmatched points: IRLUN N133 NEGUV

Route

EPGD KUKAM EPKK

ID Type Via Altitude (ft/m) Position (lat/lon) Dist (leg/tot) Name
O EPGD APT - 0 / 0 54.37617 / 18.47188 - / 0 nm LECH WALESA
KUKAM FIX - 0 / 0 50.80611 / 20.06056 222 / 222 nm
O EPKK APT - 0 / 0 50.07782 / 19.78550 44 / 267 nm BALICE

Altitude Profile

Advertisement - Login to hide

Weather


0- 5 10 15 20 25 30 35+ Temperature / °C

Clouds and Precipitation
Forecast for 2022-05-20 00:00 UTC. Updated an hour ago

Ground ~20,000 ft ~40,000 ft Winds

EPGD

Details ICAO EPGD (GDN)
Name Gdansk Lech Walesa
Region Poland
Timezone Europe/Warsaw (UTC+2.0)
Stats Elevation 488 ft / 149 m (AMSL)
Location 54.376200° 18.471900°
Runways 1
Magnetic Variation 6.059° E

METAR

EPGD 192200Z 21006KT 180V250 CAVOK 20/04 Q1016

Decode

TAF

TAF TAF EPGD 191730Z 1918/2018 23008KT CAVOK PROB40 TEMPO 2006/2013 -SHRA BKN014TCU TEMPO 2010/2017 26015G28KT

Decode

Departure Runways

ID Width Length Bearing (true/mag) Surface Threshold Overrun Markings Lighting
11 148 ft / 45 m 9,162 ft / 2,793 m 112.97° / 106.91° ASPHALT 0 ft / 0 m 0 ft / 0 m PREC-APP CENTERLINE EDGE THRESHOLD ALSF-II REIL-OMNI
29 148 ft / 45 m 9,162 ft / 2,793 m 293.01° / 286.95° ASPHALT 0 ft / 0 m 0 ft / 0 m PREC-APP CENTERLINE EDGE THRESHOLD ALSF-II REIL-OMNI

EPKK

Details ICAO EPKK (KRK)
Name Krakow-John Paul II
Region Poland
Timezone Europe/Warsaw (UTC+2.0)
Stats Elevation 791 ft / 241 m (AMSL)
Location 50.077800° 19.785500°
Runways 1
Magnetic Variation 5.744° E

METAR

EPKK 192200Z VRB01KT CAVOK 13/06 Q1022

Decode

TAF

TAF EPKK 192030Z 1921/2021 VRB02KT CAVOK BECMG 2006/2008 25012KT TEMPO 2014/2018 SHRA SCT050CB PROB30 TEMPO 2016/2018 VRB18G30KT 3000 TSRAGR BKN030CB BECMG 2018/2021 VRB02KT

Decode

Destination Runways

ID Width Length Bearing (true/mag) Surface Threshold Overrun Markings Lighting
07 197 ft / 60 m 8,352 ft / 2,546 m 77.76° / 72.01° CONCRETE 0 ft / 0 m 0 ft / 0 m PREC-APP CENTERLINE EDGE THRESHOLD ALSF-I REIL-OMNI
25 197 ft / 60 m 8,352 ft / 2,546 m 257.78° / 252.04° CONCRETE 778 ft / 237 m 0 ft / 0 m PREC-APP CENTERLINE EDGE THRESHOLD ALSF-II TDZ REIL-OMNI

Approach Navaids

Runway Type Ident Frequency Range Bearing (true/mag) Slope Elevation
25 GS KRW 110.30 MHz 10 nm / 19 km 257.77° / 252.03 ° 3.00° 791 ft / 241 m (AMSL)
25 MM MM - - 257.76° / 252.02 ° - 791 ft / 241 m (AMSL)
25 DME KRW 110.30 MHz 18 nm / 33 km - - 827 ft / 252 m (AMSL)
25 OM OM - - 257.76° / 252.02 ° - 791 ft / 241 m (AMSL)
25 LOC-ILS KRW 110.30 MHz 18 nm / 33 km 257.77° / 252.03 ° - 791 ft / 241 m (AMSL)

Popular Alternatives